Weather History for KN60 - February, 2014

Change the Weather History Date:

Friday, February 21, 2014

  Actual Average Record
Temperature  
Mean Temperature 5 °F -  
Max Temperature 14 °F 24 °F 43 °F (2002)
Min Temperature -5 °F 7 °F -18 °F (2003)
Degree Days  
Heating Degree Days 60    
Month to date heating degree days 1189  
Moisture  
Dew Point -3 °F    
Average Humidity 74    
Maximum Humidity 87    
Minimum Humidity 61    
Precipitation  
Precipitation 0.00 in - - ()
Month to date precipitation 0.24  
Year to date precipitation 0.85  
Sea Level Pressure  
Sea Level Pressure 29.91 in    
Wind  
Wind Speed 11 mph (NW)    
Max Wind Speed 22 mph    
Max Gust Speed 25 mph    
Averages and records for this station are not official NWS values.
T = Trace of Precipitation, MM = Missing Value Source: NWS Daily Summary

Daily Weather History Graph

Daily Weather History Graph

Search for Another Location

Airport or City:

Trip Planner

Search our weather history database for the weather conditions in past years. The results will help you decide how hot, cold, wet, or windy it might be!

Date:

Astronomy

Feb. 21, 2014 Rise Set
Actual Time 7:40 AM CST 6:18 PM CST
Civil Twilight 7:09 AM CST 6:49 PM CST
Nautical Twilight 6:33 AM CST 7:25 PM CST
Astronomical Twilight 5:58 AM CST 8:01 PM CST
Moon 12:41 AM CST (2/21) 10:37 AM CST (2/21)
Length of Visible Light 11h 40m
Length of Day
10h 37m
Waning Gibbous, 60% of the Moon is Illuminated
Feb 21
Waning Gibbous
Feb 22
Last Quarter
Mar 1
New
Mar 8
First Quarter
Mar 16
Full

Hourly Weather History & Observations

Time (CST) Temp. Windchill Dew Point Humidity Pressure Visibility Wind Dir Wind Speed Gust Speed Precip Events Conditions
12:52 AM 1.9 °F -5.6 °F -2.9 °F 80% 29.85 in - North 3.5 mph - N/A   Unknown
1:52 AM -0.0 °F -9.9 °F -5.1 °F 79% 29.84 in - NW 4.6 mph - N/A   Unknown
2:52 AM -0.0 °F -11.6 °F -6.0 °F 76% 29.82 in - North 5.8 mph - N/A   Unknown
3:52 AM -0.9 °F -15.3 °F -6.0 °F 79% 29.84 in - WNW 8.1 mph - N/A   Unknown
4:52 AM -0.9 °F -15.3 °F -7.1 °F 75% 29.85 in - NW 8.1 mph - N/A   Unknown
5:52 AM -2.0 °F -18.7 °F -8.0 °F 76% 29.87 in - NW 10.4 mph - N/A   Unknown
6:52 AM -4.0 °F -21.2 °F -9.0 °F 79% 29.89 in - NW 10.4 mph - N/A   Unknown
7:52 AM -4.0 °F -20.2 °F -9.9 °F 76% 29.89 in - NW 9.2 mph - N/A   Unknown
8:52 AM -0.9 °F -15.3 °F -7.1 °F 75% 29.90 in - NNW 8.1 mph - N/A   Unknown
9:52 AM 3.0 °F -12.5 °F -5.1 °F 69% 29.90 in - NNW 10.4 mph - N/A   Unknown
10:52 AM 5.0 °F -13.0 °F -2.9 °F 70% 29.90 in - NNW 15.0 mph - N/A   Unknown
11:52 AM 8.1 °F -9.0 °F -0.9 °F 67% 29.89 in - NNW 15.0 mph - N/A   Unknown
12:52 PM 10.9 °F -4.1 °F 1.0 °F 64% 29.89 in - NNW 12.7 mph - N/A   Unknown
1:52 PM 12.9 °F -3.9 °F 1.9 °F 62% 29.88 in - NW 17.3 mph - N/A   Unknown
2:52 PM 14.0 °F -2.5 °F 3.0 °F 62% 29.89 in - NNW 17.3 mph - N/A   Unknown
3:52 PM 12.9 °F -4.9 °F 1.9 °F 62% 29.91 in - NNW 19.6 mph - N/A   Unknown
4:52 PM 12.9 °F -2.8 °F 1.0 °F 59% 29.93 in - NW 15.0 mph - N/A   Unknown
5:52 PM 10.0 °F -4.5 °F 1.0 °F 67% 29.95 in - NW 11.5 mph - N/A   Unknown
6:52 PM 9.0 °F -7.3 °F -0.0 °F 67% 29.97 in - NW 13.8 mph - N/A   Unknown
7:52 PM 7.0 °F -9.8 °F -2.0 °F 67% 29.99 in - NW 13.8 mph - N/A   Unknown
8:52 PM 6.1 °F -12.8 °F -2.9 °F 67% 29.99 in - NW 17.3 mph - N/A   Unknown
9:52 PM 3.9 °F -14.3 °F -4.0 °F 70% 30.00 in - NW 15.0 mph - N/A   Unknown
10:52 PM 3.0 °F -16.7 °F -5.1 °F 69% 30.02 in - NW 17.3 mph - N/A   Unknown
11:52 PM 1.9 °F -16.2 °F -5.1 °F 72% 30.03 in - NW 13.8 mph - N/A   Unknown